Total_Precipitation_Accumulation
1.87 1.91 1.92 1.86 1.82 1.73 1.70 1.83 2.10 2.06 1.67 1.35 1.31 1.36 1.44 1.48 1.60 1.47 1.23 1.43 1.49 1.44 1.47 1.50 1.50 1.49 1.51 1.65 1.84 2.02 2.15 2.23 2.32 2.41 2.48 2.54 2.71 3.04
1.64 1.67 1.72 1.74 1.81 1.84 1.84 1.88 2.01 2.20 2.02 1.52 1.38 1.39 1.46 1.47 1.59 1.42 1.29 1.48 1.40 1.36 1.36 1.35 1.31 1.28 1.29 1.35 1.50 1.66 1.80 1.90 2.00 2.16 2.32 2.47 2.62 2.75
1.61 1.54 1.48 1.54 1.69 1.77 1.86 1.91 1.96 2.07 2.08 1.64 1.37 1.32 1.39 1.37 1.34 1.23 1.20 1.20 1.16 1.30 1.25 1.22 1.21 1.20 1.18 1.21 1.30 1.41 1.54 1.68 1.83 2.01 2.17 2.31 2.43 2.52
1.67 1.64 1.56 1.53 1.65 1.75 1.86 1.90 1.86 1.83 1.86 1.69 1.41 1.28 1.26 1.21 1.18 1.13 1.08 1.05 1.03 1.22 1.21 1.17 1.17 1.16 1.11 1.12 1.17 1.26 1.36 1.47 1.59 1.71 1.87 1.96 2.08 2.24
1.65 1.71 1.67 1.68 1.71 1.69 1.69 1.69 1.64 1.57 1.53 1.51 1.36 1.22 1.20 1.19 1.22 1.15 1.05 0.99 0.95 1.06 1.11 1.10 1.16 1.18 1.13 1.12 1.16 1.20 1.20 1.22 1.26 1.31 1.45 1.60 1.74 1.89
1.67 1.71 1.71 1.71 1.67 1.67 1.65 1.57 1.52 1.52 1.48 1.47 1.40 1.28 1.20 1.16 1.23 1.22 1.15 1.03 0.96 0.91 1.00 1.02 1.09 1.18 1.17 1.08 1.00 1.00 0.99 1.06 1.16 1.25 1.31 1.40 1.48 1.57
1.75 1.68 1.64 1.73 1.71 1.66 1.63 1.61 1.62 1.68 1.66 1.63 1.53 1.37 1.20 1.12 1.11 1.06 1.09 1.06 1.01 0.92 0.94 0.93 0.94 0.92 0.95 1.02 1.04 1.02 1.05 1.09 1.19 1.29 1.38 1.42 1.48 1.54
1.71 1.61 1.55 1.61 1.59 1.63 1.65 1.65 1.73 1.81 1.89 1.83 1.64 1.39 1.10 0.95 0.95 1.08 1.21 1.31 1.24 0.93 0.92 0.88 0.85 0.90 0.87 0.89 1.05 1.08 1.08 1.11 1.14 1.22 1.29 1.32 1.36 1.42
1.49 1.41 1.35 1.31 1.36 1.22 1.34 1.48 1.51 1.63 1.68 1.61 1.47 1.19 1.04 0.98 1.13 1.29 1.28 1.28 1.12 0.91 1.03 1.09 0.95 0.91 0.86 0.94 1.10 1.01 1.00 1.04 1.08 1.16 1.18 1.20 1.24 1.30
1.23 1.19 1.17 1.13 1.13 1.19 1.20 1.28 1.22 1.17 1.14 1.09 1.07 1.01 1.02 1.10 1.28 1.47 1.47 1.41 1.19 1.01 1.05 1.20 1.03 0.94 0.85 0.91 1.05 0.99 1.00 1.05 1.08 1.14 1.17 1.19 1.22 1.24
1.04 1.03 1.05 1.01 1.17 1.38 1.38 1.34 1.16 1.05 1.07 1.11 1.16 1.19 1.28 1.31 1.35 1.50 1.62 1.72 1.56 1.21 1.04 1.08 0.97 0.91 0.89 0.88 0.95 1.05 0.99 0.98 0.99 1.01 1.06 1.12 1.16 1.26
0.98 0.97 1.10 1.10 1.27 1.44 1.38 1.38 1.27 1.05 1.04 1.07 1.05 1.04 1.03 1.10 1.27 1.28 1.52 1.89 1.73 1.43 1.03 1.11 1.12 1.19 1.39 1.01 0.88 0.89 0.91 0.96 0.99 1.01 1.04 1.05 1.12 1.16
0.95 0.92 0.95 1.16 1.29 1.38 1.36 1.24 1.29 1.32 1.22 1.19 1.15 1.09 1.06 1.06 1.09 1.08 1.22 1.74 2.04 1.65 1.06 1.46 1.68 1.39 1.55 1.24 0.94 0.88 0.87 0.97 1.04 1.04 1.12 1.19 1.25 1.34
0.95 0.84 0.89 1.13 1.22 1.27 1.22 1.24 1.39 1.38 1.22 1.27 1.29 1.21 1.16 1.13 1.10 1.10 1.12 1.22 1.44 1.54 1.25 1.66 2.18 1.76 1.84 1.53 1.07 0.92 0.90 1.01 1.20 1.24 1.22 1.40 1.52 1.58
0.99 0.99 1.00 1.06 1.04 1.06 1.14 1.19 1.18 1.11 1.16 1.27 1.26 1.13 1.03 1.03 1.07 1.14 1.17 1.15 1.16 1.15 1.19 1.36 1.74 1.76 1.92 1.81 1.32 1.02 1.05 1.08 1.20 1.35 1.42 1.49 1.59 1.66
1.17 1.16 1.10 1.04 1.01 0.99 1.03 1.02 1.00 1.04 1.15 1.21 1.16 1.07 1.03 1.06 1.10 1.15 1.28 1.31 1.36 1.20 1.07 1.07 1.23 1.58 1.75 1.41 1.41 1.30 1.22 1.33 1.30 1.40 1.55 1.59 1.66 1.79
1.33 1.22 1.13 1.05 1.05 1.02 0.99 0.96 0.99 1.08 1.14 1.11 1.16 1.18 1.14 1.11 1.10 1.12 1.25 1.37 1.46 1.26 1.10 0.99 1.00 1.13 1.32 1.42 1.45 1.23 1.20 1.31 1.44 1.59 1.76 1.74 1.67 1.82
1.37 1.23 1.08 0.98 0.94 0.93 0.95 0.95 0.95 1.01 1.05 1.14 1.21 1.24 1.26 1.25 1.21 1.16 1.24 1.36 1.34 1.16 1.09 1.06 1.12 1.29 1.35 1.28 1.25 1.26 1.26 1.36 1.42 1.50 1.70 1.87 1.77 1.66
1.21 1.09 0.99 0.94 0.91 0.89 0.91 0.95 0.95 0.92 1.01 1.15 1.23 1.26 1.28 1.27 1.27 1.27 1.28 1.32 1.26 1.13 1.08 1.11 1.29 1.71 1.79 1.29 0.98 1.12 1.47 1.57 1.49 1.53 1.63 1.81 1.94 1.73
1.03 0.95 0.91 0.92 0.97 1.00 1.01 1.05 1.07 1.04 1.08 1.14 1.18 1.19 1.24 1.33 1.31 1.26 1.25 1.31 1.33 1.21 1.10 1.03 1.14 1.60 2.08 1.78 1.42 1.19 1.28 1.60 1.82 1.92 1.75 1.61 1.69 1.64
0.91 0.89 0.88 0.93 1.02 1.11 1.14 1.16 1.19 1.22 1.20 1.23 1.21 1.21 1.25 1.37 1.31 1.17 1.19 1.26 1.36 1.30 1.19 0.99 0.90 1.12 1.55 1.87 1.67 1.20 1.20 1.33 1.66 2.16 2.14 1.97 1.77 1.54
0.91 0.92 0.94 0.99 1.08 1.17 1.22 1.24 1.24 1.20 1.22 1.26 1.23 1.22 1.26 1.37 1.36 1.25 1.25 1.31 1.27 1.22 1.13 0.98 0.94 1.10 1.43 1.80 1.54 1.13 1.08 1.12 1.20 1.34 1.80 2.41 2.93 2.87
0.99 1.01 1.03 1.07 1.11 1.16 1.19 1.19 1.19 1.15 1.16 1.27 1.30 1.27 1.30 1.36 1.30 1.31 1.30 1.31 1.32 1.25 1.21 1.19 1.13 1.16 1.22 1.32 1.39 1.21 1.05 1.03 1.06 1.15 1.43 1.69 1.93 2.13